Regional Weather Roundup
Issued by NWS

Home | Current Version | Previous Version | Graphics & Text | Print | Product List | Glossary On
Versions: 1 2 3 4 5 6 7 8 9 10 11 12 13 14 15 16 17 18 19 20 21 22 23 24 25 26 27 28 29 30 31 32 33 34 35 36 37 38 39 40 41 42 43 44 45 46 47 48 49 50
000
ASUS45 KBOU 282207
RWRCO

WEATHER ROUNDUP FOR COLORADO
NATIONAL WEATHER SERVICE DENVER/BOULDER CO
400 PM MDT WED JUN 28 2017

NOTE: "FAIR" INDICATES FEW OR NO CLOUDS BELOW 12000 FEET WITH NO
SIGNIFICANT WEATHER AND/OR OBSTRUCTIONS TO VISIBILITY.

COZ001>005-013-030-031-282300-
...NORTHWEST COLORADO...

CITY           SKY/WX    TMP DP  RH WIND       PRES   REMARKS
CRAIG          FAIR      88  11   5 SW23G32   29.90F
HAYDEN         FAIR      84  27  12 S16G25    29.94F
MEEKER         FAIR      85  22  10 SW8       29.93F
RABBIT EARS PA MOCLDY    55  32  41 W6        30.28F
STEAMBOAT SPGS FAIR      78  33  19 SE8       29.98F
WALDEN         FAIR      75  28  17 SW23G30   30.09S
$$

COZ006>008-011-282300-
...WEST CENTRAL VALLEYS...

CITY           SKY/WX    TMP DP  RH WIND       PRES   REMARKS
GRAND JUNCTION FAIR      95  15   5 W16G22    29.80F
MONTROSE       FAIR      91  20   7 SW18G24   29.91F
EAGLE          NOT AVBL
RIFLE          FAIR      93   7   4 W25G37    29.86F
DELTA          FAIR      95  15   5 SW13G20   29.84F
NUCLA          NOT AVBL
$$

COZ017>023-064>068-282300-
...SOUTHWEST COLORADO...

CITY           SKY/WX    TMP DP  RH WIND       PRES   REMARKS
DURANGO        FAIR      87   9   5 W20G28    30.03F
CORTEZ         FAIR      91   5   4 SW13G26   29.98F
PAGOSA SPRINGS FAIR      82   8   6 SW7G21    30.12F
TELLURIDE      FAIR      74  14  10 SW17G26   30.25S
WOLF CREEK PAS FAIR      59  21  23 S22G36    30.47F
$$

COZ009-010-012-014-032>034-037-058>063-282300-
...CENTRAL COLORADO...

CITY           SKY/WX    TMP DP  RH WIND       PRES   REMARKS
ASPEN          FAIR      79  23  12 VRB6G24   30.05F
BUENA VISTA    FAIR      82  16   8 SW16G24   30.06F
COPPER MTN     PTSUNNY   61  16  17 W20G25    30.40F
BERTHOUD PASS  FAIR      54  39  58 W25G37    30.42F
COTTONWOOD PAS FAIR      77   5   6 SW12G28   30.22F
GUNNISON       FAIR      81  26  13 SW12G20   30.07S
KREMMLING      FAIR      82  23  11 NW16G23   30.03F
LEADVILLE      FAIR      69  13  11 W14G22    30.21F
MONARCH PASS   FAIR      61  18  18 W31G46    30.51S
SALIDA         FAIR      86  15   7 W17G28    30.09S
SUNLIGHT       PTSUNNY   68  25  19 SW12G29   30.32S
WILKERSON PASS FAIR      70  14  11 SW13G31   30.34S
$$

COZ069>075-282300-
...SAN LUIS VALLEY/SANGRE DE CRISTO MOUNTAINS...

CITY           SKY/WX    TMP DP  RH WIND       PRES   REMARKS
ALAMOSA        FAIR      85  16   7 SW22G29   30.04F
DEL NORTE      FAIR      83  25  12 SW17G29   30.07S
LA VETA PASS   FAIR      75  23  14 MISG      30.38F
SAGUACHE       FAIR      84  21  10 NW16      30.04F
$$

COZ035-036-038>040-282300-
...NORTHERN COLORADO FRONT RANGE...

CITY           SKY/WX    TMP DP  RH WIND       PRES   REMARKS
DENVER INTL AP PTSUNNY   86  38  18 E20       29.85F
DMNS CITY PARK   N/A     83  40  21 NW13G18   29.85R
AURORA         PTSUNNY   83  32  15 SE8G47    29.86F
FRONT RANGE AP FAIR      88  36  15 SE17      29.86F
ERIE MUNI ARPT FAIR      87  36  16 N12G17    29.84F
BOULDER MUN AP FAIR      86  37  17 N9G17     29.85F
CENTENNIAL     CLOUDY    85  33  15 N7        29.88S
BROOMFIELD     FAIR      82  39  21 N12       29.89F
FORT COLLINS   FAIR      84  43  23 S10       29.84F
LONGMONT       FAIR      92  37  14 E7        29.85F
$$

COZ041-046-047-076>085-087-088-282300-
...PIKES PEAK/PALMER DIVIDE AND SOUTHERN FOOTHILLS...

CITY           SKY/WX    TMP DP  RH WIND       PRES   REMARKS
COLO. SPRINGS  FAIR      88  34  14 S21G29    29.91F
A. F. ACADEMY  FAIR      83  35  17 SE22G30   29.91F
SCHRIEVER AFB  FAIR      85  33  15 S21G28    29.92F
CHEYENNE MTN   FAIR      81  34  18 SE18G32   29.91F
ELLICOTT       FAIR     N/A N/A N/A S21G28    29.89F
FALCON           N/A     84  30  14 S21G32    29.97F
FORT CARSON    FAIR      88  37  16 S9G18     29.88F
LIMON          FAIR      85  35  16 S13G24    29.87F
MONUMENT HILL  FAIR      79  34  19 S21G28    29.99F
CANON CITY     SUNNY     93  43  17 E16G23    29.84F
WALSENBURG     FAIR      95  23   7 SW18G29   29.90S
TRINIDAD       FAIR      91  34  13 SE10      29.88F
$$

COZ042>045-048>051-090-091-282300-
...NORTHEAST COLORADO...

CITY           SKY/WX    TMP DP  RH WIND       PRES   REMARKS
GREELEY ARPT   FAIR      88  44  21 SE9       29.82F
AKRON          FAIR      84  39  20 CALM      29.85F
BURLINGTON     FAIR      90  45  21 E12G18    29.83F
WRAY           FAIR      90  43  19 NE3       29.80F
YUMA           FAIR      81  46  30 SE8       29.82F
STERLING       FAIR      90  43  19 SW12      29.78F
HOLYOKE        NOT AVBL
FORT MORGAN    FAIR      88  38  16 SE7       29.84S
$$

COZ086-089-092>099-282300-
...SOUTHEAST COLORADO...

CITY           SKY/WX    TMP DP  RH WIND       PRES   REMARKS
PUEBLO         FAIR      94  39  14 SE14      29.79F
LA JUNTA       FAIR      93  42  17 SE13      29.79F
LAMAR          FAIR      95  43  16 SE13G20   29.77F
SPRINGFIELD      N/A     91  47  21 VRB7      29.83F
$$



USA.gov is the U.S. government's official web portal to all federal, state and local government web resources and services.